UTA280 USSS-USTR

Flight info

Callsign UTA280
Flight time 0h 50m
Altitude 13000
Route N0240F130 ANATU P135 GIBUL P983 GINPA
Aircraft AN24/M-I/L

Departure

Time 2026-05-04 14:05
Airport Koltsovo Airport (USSS)

Arrival

Time 2026-05-04 14:56
Airport Roshchino International Airport (USTR)
Time Latitude Longitude Altitude Speed Heading
2026-05-04 13:34 56.74800 60.80538 778 ft 0 kts 359°
2026-05-04 13:58 56.74851 60.80560 778 ft 12 kts 57°
2026-05-04 13:58 56.74850 60.80938 778 ft 16 kts 90°
2026-05-04 13:58 56.74862 60.81124 778 ft 14 kts 86°
2026-05-04 13:59 56.74864 60.81335 778 ft 15 kts 90°
2026-05-04 13:59 56.74863 60.81586 778 ft 19 kts 90°
2026-05-04 13:59 56.74814 60.82010 778 ft 15 kts 116°
2026-05-04 14:00 56.74766 60.82174 778 ft 16 kts 134°
2026-05-04 14:00 56.74547 60.82200 778 ft 15 kts 181°
2026-05-04 14:00 56.74443 60.82198 778 ft 14 kts 182°
2026-05-04 14:01 56.74325 60.82183 778 ft 17 kts 185°
2026-05-04 14:01 56.74215 60.82169 778 ft 14 kts 183°
2026-05-04 14:01 56.74180 60.82165 778 ft 7 kts 182°
2026-05-04 14:02 56.74108 60.82156 778 ft 13 kts 187°
2026-05-04 14:02 56.74068 60.82021 778 ft 13 kts 275°
2026-05-04 14:02 56.74075 60.81870 778 ft 9 kts 274°
2026-05-04 14:02 56.74077 60.81819 778 ft 0 kts 275°
2026-05-04 14:03 56.74077 60.81818 778 ft 3 kts 275°
2026-05-04 14:04 56.74156 60.79894 782 ft 127 kts 274°
2026-05-04 14:04 56.74220 60.78158 983 ft 146 kts 275°
2026-05-04 14:04 56.74299 60.76281 1317 ft 155 kts 274°
2026-05-04 14:05 56.74484 60.72070 1942 ft 172 kts 276°
2026-05-04 14:05 56.74582 60.69884 2307 ft 174 kts 277°
2026-05-04 14:05 56.74677 60.67704 2622 ft 175 kts 276°
2026-05-04 14:06 56.74772 60.65496 2980 ft 174 kts 277°
2026-05-04 14:06 56.74874 60.63347 3360 ft 171 kts 277°
2026-05-04 14:06 56.74904 60.61186 3649 ft 176 kts 265°
2026-05-04 14:06 56.74419 60.59086 3920 ft 184 kts 236°
2026-05-04 14:07 56.73377 60.57696 4228 ft 192 kts 206°
2026-05-04 14:07 56.72046 60.57400 4522 ft 200 kts 176°
2026-05-04 14:07 56.70732 60.58251 4788 ft 205 kts 150°
2026-05-04 14:07 56.69736 60.60046 5095 ft 205 kts 122°
2026-05-04 14:08 56.69301 60.62416 5481 ft 197 kts 93°
2026-05-04 14:08 56.69441 60.64845 5767 ft 195 kts 74°
2026-05-04 14:08 56.69765 60.67228 6072 ft 193 kts 70°
2026-05-04 14:08 56.70181 60.69515 6389 ft 191 kts 66°
2026-05-04 14:09 56.71078 60.74093 6898 ft 195 kts 66°
2026-05-04 14:09 56.71557 60.76434 7182 ft 195 kts 65°
2026-05-04 14:10 56.72491 60.81044 7719 ft 196 kts 65°
2026-05-04 14:10 56.72972 60.83341 7995 ft 195 kts 65°
2026-05-04 14:10 56.73470 60.85635 8234 ft 196 kts 60°
2026-05-04 14:10 56.74288 60.87548 8461 ft 191 kts 34°
2026-05-04 14:11 56.75472 60.88485 8686 ft 185 kts
2026-05-04 14:11 56.77941 60.88000 9224 ft 179 kts 351°
2026-05-04 14:11 56.79188 60.87914 9432 ft 184 kts
2026-05-04 14:12 56.80398 60.88693 9713 ft 185 kts 21°
2026-05-04 14:12 56.81568 60.89670 9920 ft 187 kts 20°
2026-05-04 14:12 56.83922 60.91583 10449 ft 184 kts 19°
2026-05-04 14:13 56.85095 60.92530 10680 ft 184 kts 19°
2026-05-04 14:13 56.86253 60.93467 10932 ft 183 kts 19°
2026-05-04 14:13 56.87362 60.94614 11199 ft 186 kts 36°
2026-05-04 14:13 56.88149 60.96470 11440 ft 191 kts 59°
2026-05-04 14:14 56.88682 60.98690 11694 ft 190 kts 62°
2026-05-04 14:14 56.89762 61.03114 12126 ft 193 kts 62°
2026-05-04 14:14 56.90313 61.05368 12315 ft 195 kts 62°
2026-05-04 14:15 56.91423 61.09925 12712 ft 197 kts 62°
2026-05-04 14:15 56.92561 61.14585 12896 ft 209 kts 62°
2026-05-04 14:16 56.93781 61.19593 12864 ft 222 kts 62°
2026-05-04 14:16 56.94416 61.22211 12888 ft 225 kts 62°
2026-05-04 14:17 56.95694 61.27486 12879 ft 230 kts 63°
2026-05-04 14:17 56.96345 61.30174 12873 ft 233 kts 63°
2026-05-04 14:17 56.97664 61.35637 12880 ft 235 kts 63°
2026-05-04 14:18 56.98316 61.38345 12908 ft 235 kts 63°
2026-05-04 14:18 56.99659 61.43934 12836 ft 240 kts 63°
2026-05-04 14:19 57.00973 61.49436 12879 ft 239 kts 63°
2026-05-04 14:19 57.01646 61.52256 12824 ft 242 kts 63°
2026-05-04 14:19 57.02312 61.55053 12901 ft 238 kts 63°
2026-05-04 14:19 57.02974 61.57843 12913 ft 238 kts 63°
2026-05-04 14:20 57.03636 61.60620 12871 ft 241 kts 63°
2026-05-04 14:20 57.04307 61.63443 12860 ft 242 kts 63°
2026-05-04 14:20 57.04971 61.66244 12874 ft 241 kts 64°
2026-05-04 14:21 57.06305 61.71892 12874 ft 240 kts 64°
2026-05-04 14:21 57.06970 61.74710 12876 ft 240 kts 64°
2026-05-04 14:21 57.07630 61.77519 12847 ft 242 kts 64°
2026-05-04 14:21 57.08300 61.80366 12854 ft 241 kts 64°
2026-05-04 14:22 57.08955 61.83155 12868 ft 241 kts 64°
2026-05-04 14:22 57.09622 61.85995 12843 ft 242 kts 64°
2026-05-04 14:22 57.10289 61.88837 12848 ft 242 kts 64°
2026-05-04 14:22 57.10948 61.91654 12865 ft 241 kts 64°
2026-05-04 14:23 57.12273 61.97322 12842 ft 242 kts 64°
2026-05-04 14:23 57.12939 62.00189 12855 ft 242 kts 65°
2026-05-04 14:23 57.13494 62.03095 12863 ft 242 kts 71°
2026-05-04 14:24 57.13969 62.06064 12822 ft 244 kts 71°
2026-05-04 14:24 57.14437 62.09042 12828 ft 244 kts 72°
2026-05-04 14:24 57.14905 62.12027 12897 ft 241 kts 72°
2026-05-04 14:24 57.15370 62.14996 12835 ft 244 kts 72°
2026-05-04 14:25 57.15842 62.18001 12791 ft 245 kts 72°
2026-05-04 14:25 57.16767 62.23938 12882 ft 242 kts 72°
2026-05-04 14:25 57.17229 62.26915 12854 ft 243 kts 72°
2026-05-04 14:26 57.17699 62.29942 12833 ft 244 kts 72°
2026-05-04 14:26 57.18161 62.32921 12856 ft 243 kts 72°
2026-05-04 14:26 57.18618 62.35876 12859 ft 243 kts 72°
2026-05-04 14:26 57.19082 62.38891 12838 ft 244 kts 72°
2026-05-04 14:27 57.19545 62.41899 12848 ft 243 kts 72°
2026-05-04 14:27 57.20003 62.44876 12858 ft 243 kts 72°
2026-05-04 14:27 57.20465 62.47886 12841 ft 244 kts 72°
2026-05-04 14:27 57.20925 62.50889 12853 ft 244 kts 72°
2026-05-04 14:28 57.21383 62.53889 12874 ft 243 kts 72°
2026-05-04 14:28 57.21838 62.56872 12841 ft 245 kts 72°
2026-05-04 14:28 57.22296 62.59891 12842 ft 244 kts 72°
2026-05-04 14:28 57.22749 62.62879 12871 ft 243 kts 72°
2026-05-04 14:29 57.23666 62.68909 12837 ft 245 kts 73°
2026-05-04 14:29 57.24578 62.74948 12855 ft 243 kts 73°
2026-05-04 14:30 57.25031 62.77959 12843 ft 244 kts 73°
2026-05-04 14:30 57.25478 62.80941 12851 ft 243 kts 73°
2026-05-04 14:30 57.26380 62.86955 12843 ft 244 kts 73°
2026-05-04 14:31 57.26834 62.89977 12868 ft 243 kts 73°
2026-05-04 14:31 57.27737 62.96011 12856 ft 244 kts 73°
2026-05-04 14:32 57.28632 63.02013 12848 ft 244 kts 73°
2026-05-04 14:32 57.29082 63.05048 12856 ft 244 kts 73°
2026-05-04 14:32 57.29531 63.08070 12836 ft 245 kts 73°
2026-05-04 14:32 57.29975 63.11074 12842 ft 244 kts 73°
2026-05-04 14:33 57.30423 63.14102 12847 ft 244 kts 73°
2026-05-04 14:33 57.30866 63.17113 12827 ft 245 kts 73°
2026-05-04 14:33 57.31311 63.20129 12850 ft 244 kts 73°
2026-05-04 14:33 57.31754 63.23148 12864 ft 244 kts 73°
2026-05-04 14:34 57.32203 63.26207 12850 ft 244 kts 73°
2026-05-04 14:34 57.32643 63.29222 12853 ft 244 kts 73°
2026-05-04 14:34 57.33086 63.32248 12837 ft 245 kts 73°
2026-05-04 14:34 57.33529 63.35292 12847 ft 245 kts 73°
2026-05-04 14:35 57.33972 63.38332 12846 ft 245 kts 73°
2026-05-04 14:35 57.34410 63.41352 12855 ft 245 kts 73°
2026-05-04 14:35 57.34853 63.44407 12864 ft 245 kts 73°
2026-05-04 14:35 57.35290 63.47439 12850 ft 246 kts 73°
2026-05-04 14:36 57.35728 63.50467 12856 ft 246 kts 73°
2026-05-04 14:36 57.36171 63.53543 12830 ft 247 kts 73°
2026-05-04 14:36 57.36609 63.56589 12849 ft 246 kts 73°
2026-05-04 14:36 57.37048 63.59654 12847 ft 246 kts 73°
2026-05-04 14:37 57.37484 63.62696 12854 ft 246 kts 73°
2026-05-04 14:37 57.37925 63.65787 12827 ft 247 kts 74°
2026-05-04 14:37 57.38364 63.68868 12848 ft 246 kts 74°
2026-05-04 14:37 57.38795 63.71895 12842 ft 247 kts 74°
2026-05-04 14:38 57.39231 63.74963 12837 ft 247 kts 74°
2026-05-04 14:38 57.39664 63.78013 12865 ft 246 kts 74°
2026-05-04 14:38 57.40097 63.81079 12855 ft 247 kts 74°
2026-05-04 14:38 57.40533 63.84160 12841 ft 247 kts 74°
2026-05-04 14:39 57.40964 63.87229 12854 ft 247 kts 74°
2026-05-04 14:39 57.41401 63.90323 12831 ft 248 kts 74°
2026-05-04 14:39 57.41708 63.93433 12854 ft 247 kts 87°
2026-05-04 14:40 57.40939 63.99600 12801 ft 249 kts 113°
2026-05-04 14:40 57.40286 64.02536 12753 ft 250 kts 114°
2026-05-04 14:40 57.39630 64.05465 12916 ft 242 kts 114°
2026-05-04 14:40 57.38987 64.08334 12867 ft 246 kts 114°
2026-05-04 14:41 57.38320 64.11303 12737 ft 251 kts 114°
2026-05-04 14:41 57.37656 64.14261 12868 ft 244 kts 114°
2026-05-04 14:41 57.36346 64.20071 12766 ft 251 kts 114°
2026-05-04 14:42 57.35016 64.25928 12915 ft 243 kts 115°
2026-05-04 14:42 57.34360 64.28803 12845 ft 248 kts 115°
2026-05-04 14:42 57.33683 64.31771 12813 ft 249 kts 115°
2026-05-04 14:43 57.33010 64.34721 12827 ft 248 kts 115°
2026-05-04 14:43 57.32345 64.37631 12831 ft 248 kts 115°
2026-05-04 14:43 57.31671 64.40574 12833 ft 248 kts 115°
2026-05-04 14:43 57.31005 64.43478 12842 ft 248 kts 115°
2026-05-04 14:44 57.30353 64.46379 12724 ft 240 kts 114°
2026-05-04 14:44 57.29793 64.49274 12288 ft 241 kts 108°
2026-05-04 14:44 57.29375 64.52245 11870 ft 240 kts 105°
2026-05-04 14:44 57.28994 64.55220 11465 ft 239 kts 104°
2026-05-04 14:45 57.28642 64.58192 11084 ft 237 kts 103°
2026-05-04 14:45 57.28306 64.61181 10669 ft 236 kts 103°
2026-05-04 14:45 57.27972 64.64130 10238 ft 236 kts 103°
2026-05-04 14:45 57.27630 64.67085 9747 ft 238 kts 104°
2026-05-04 14:46 57.27266 64.70075 9201 ft 241 kts 104°
2026-05-04 14:46 57.26920 64.73062 8696 ft 242 kts 103°
2026-05-04 14:46 57.26600 64.76107 8131 ft 245 kts 103°
2026-05-04 14:46 57.26260 64.79163 7642 ft 243 kts 103°
2026-05-04 14:47 57.25912 64.82199 7092 ft 244 kts 104°
2026-05-04 14:47 57.25541 64.85238 6574 ft 243 kts 104°
2026-05-04 14:47 57.25149 64.88259 6054 ft 242 kts 105°
2026-05-04 14:47 57.24752 64.91293 5496 ft 243 kts 104°
2026-05-04 14:48 57.24360 64.94283 5003 ft 240 kts 104°
2026-05-04 14:48 57.23967 64.97224 4543 ft 237 kts 105°
2026-05-04 14:48 57.23550 65.00163 4096 ft 233 kts 105°
2026-05-04 14:48 57.23177 65.02924 3968 ft 216 kts 106°
2026-05-04 14:49 57.22776 65.05505 3766 ft 206 kts 107°
2026-05-04 14:49 57.22421 65.08067 3438 ft 205 kts 104°
2026-05-04 14:49 57.22113 65.10560 3345 ft 192 kts 103°
2026-05-04 14:49 57.21832 65.12873 3272 ft 179 kts 103°
2026-05-04 14:50 57.21568 65.15005 3105 ft 165 kts 104°
2026-05-04 14:50 57.21324 65.17030 2728 ft 158 kts 103°
2026-05-04 14:50 57.21107 65.18995 2670 ft 151 kts 100°
2026-05-04 14:50 57.20913 65.20830 2615 ft 151 kts 106°
2026-05-04 14:51 57.20525 65.22652 2484 ft 152 kts 120°
2026-05-04 14:51 57.19871 65.24153 2388 ft 149 kts 144°
2026-05-04 14:51 57.19063 65.25333 2296 ft 149 kts 146°
2026-05-04 14:51 57.18260 65.26490 2282 ft 145 kts 149°
2026-05-04 14:52 57.17413 65.27536 2185 ft 148 kts 149°
2026-05-04 14:52 57.16603 65.28681 2136 ft 146 kts 148°
2026-05-04 14:52 57.15766 65.29745 2104 ft 145 kts 148°
2026-05-04 14:52 57.15012 65.30984 2011 ft 150 kts 136°
2026-05-04 14:53 57.14303 65.32395 2002 ft 144 kts 135°
2026-05-04 14:53 57.13648 65.33676 2044 ft 134 kts 137°
2026-05-04 14:53 57.12990 65.34878 2058 ft 131 kts 140°
2026-05-04 14:53 57.12531 65.36359 1873 ft 145 kts 101°
2026-05-04 14:54 57.12733 65.38103 1644 ft 140 kts 50°
2026-05-04 14:54 57.13533 65.38992 1364 ft 133 kts
2026-05-04 14:54 57.14349 65.38578 1217 ft 119 kts 326°
2026-05-04 14:54 57.15139 65.38075 1026 ft 121 kts 342°
2026-05-04 14:55 57.15935 65.37616 832 ft 121 kts 332°
2026-05-04 14:55 57.16633 65.36730 575 ft 122 kts 313°
2026-05-04 14:55 57.17228 65.35637 382 ft 120 kts 314°
2026-05-04 14:55 57.17742 65.34669 336 ft 89 kts 315°
2026-05-04 14:56 57.18069 65.34072 337 ft 44 kts 317°
2026-05-04 14:56 57.18240 65.33740 334 ft 29 kts 317°
2026-05-04 14:56 57.18372 65.33517 329 ft 22 kts 309°
2026-05-04 14:56 57.18473 65.33315 325 ft 17 kts 314°
2026-05-04 14:57 57.18568 65.33271 322 ft 14 kts 37°
2026-05-04 14:57 57.18621 65.33416 318 ft 14 kts 88°
2026-05-04 14:57 57.18615 65.33588 316 ft 12 kts 113°
2026-05-04 14:57 57.18563 65.33697 316 ft 10 kts 132°
2026-05-04 14:58 57.18518 65.33786 317 ft 8 kts 135°
2026-05-04 14:58 57.18454 65.33900 320 ft 14 kts 134°
2026-05-04 14:58 57.18391 65.34019 324 ft 20 kts 134°
2026-05-04 14:58 57.18295 65.34198 327 ft 17 kts 134°
2026-05-04 14:59 57.18192 65.34387 329 ft 23 kts 134°
2026-05-04 14:59 57.18089 65.34579 331 ft 18 kts 135°
2026-05-04 14:59 57.17903 65.34926 333 ft 15 kts 135°
2026-05-04 15:00 57.17828 65.35059 335 ft 13 kts 153°
2026-05-04 15:00 57.17761 65.35031 335 ft 8 kts 131°
2026-05-04 15:00 57.17770 65.35076 335 ft 0 kts 44°